Content
SEND FEEDBACK

Daily
Averages
Monthly
Summary
United States of America

ACHANG BAY, GUAM


Home > North America > United States > Guam
Elevation: 30 feet     Latitude: 13 16N     Longitude: 144 45E

WEATHER
 
SELECT A DAY
Number of Records: 342,273;   Date Range: 1/1/95 - 8/30/14
 
SHARE

PRINT THIS DATA

[ ← Previous Day ]
WEATHER ALMANAC - APRIL 19, 2014
[ Next Day → ]
[ °C ]   °F
Weather ElementAverageHighLow
Temperature81.9 °F86.7 °F (12:58 pm)78.8 °F (12:09 am)
Dewpoint76.9 °F78.8 °F (8:03 am)75.2 °F (4:08 am)
Humidity85.1 %94 % (12:09 am)73 % (2:58 pm)
Barometer29.79 in29.83 in (8:03 am)29.72 in (3:58 pm)
Wind Speed13.5 mph18.4 mph (12:18 pm)
Wind Gust23 mph (11:58 am)
Weather ElementAverage
Visibility9.9 mi
Wind DirectionESE (110.4 °)

Weather ElementTotal
Precipitation0.01 in
Cooling Degree Days17.8 (Base 65)
Growing Degree Days32.8 (Base 50)
Averaged from 90 records on April 19, 2014
WEATHER CONDITIONS BREAKOUT
WIND DIRECTION BREAKOUT
WEATHER BY HOUR - APRIL 19, 2014
[ °C ]   °F
Local TimeTemperatureDewpointHumidityBarometerVisibilityWind DirectionWind SpeedGust SpeedPrecipitationEventsConditions
12:09 AM78.8 °F77.0 °F94 %29.82 in10.0 miENE (70°)10.4 mphRainLight Rain
12:10 AM78.8 °F77.0 °F94 %29.82 in10.0 miENE (70°)11.5 mphScattered Clouds
12:58 AM78.8 °F77.0 °F94 %29.81 in10.0 miENE (60°)11.5 mphScattered Clouds
1:58 AM78.8 °F77.0 °F94 %29.81 in10.0 miENE (70°)6.9 mphMostly Cloudy
2:58 AM78.8 °F77.0 °F94 %29.80 in5.0 miENE (60°)13.8 mphRainLight Rain
3:37 AM78.8 °F77.0 °F94 %29.78 in10.0 miEast (90°)12.7 mphScattered Clouds
3:47 AM78.8 °F77.0 °F94 %29.78 in10.0 miEast (100°)11.5 mphLight Drizzle
3:51 AM78.8 °F77.0 °F94 %29.78 in10.0 miEast (90°)12.7 mphMostly Cloudy
3:56 AM78.8 °F77.0 °F94 %29.78 in9.0 miEast (80°)13.8 mphLight Drizzle
3:58 AM79.0 °F76.8 °F93 %29.75 in8.0 miEast (80°)13.8 mph0.00 inRainLight Rain
4:03 AM78.8 °F77.0 °F94 %29.78 in6.0 miEast (80°)10.4 mphLight Drizzle
4:08 AM78.8 °F75.2 °F89 %29.78 in9.0 miEast (90°)10.4 mphLight Drizzle
4:11 AM78.8 °F77.0 °F94 %29.78 in10.0 miEast (100°)10.4 mphMostly Cloudy
4:16 AM78.8 °F77.0 °F94 %29.78 in10.0 miEast (100°)10.4 mphScattered Clouds
4:41 AM78.8 °F77.0 °F94 %29.79 in10.0 miEast (80°)12.7 mphMostly Cloudy
4:51 AM78.8 °F77.0 °F94 %29.79 in10.0 miEast (90°)10.4 mphMostly Cloudy
4:58 AM78.8 °F76.8 °F94 %29.76 in10.0 miEast (100°)9.2 mph0.00 inMostly Cloudy
5:08 AM78.8 °F77.0 °F94 %29.79 in10.0 miEast (90°)10.4 mphMostly Cloudy
5:13 AM78.8 °F77.0 °F94 %29.79 in10.0 miEast (90°)9.2 mphMostly Cloudy
5:18 AM78.8 °F77.0 °F94 %29.79 in10.0 miEast (90°)9.2 mphMostly Cloudy
5:58 AM79.0 °F76.8 °F93 %29.76 in10.0 miEast (90°)11.5 mphMostly Cloudy
6:03 AM78.8 °F77.0 °F94 %29.79 in10.0 miEast (90°)13.8 mphMostly Cloudy
6:13 AM78.8 °F77.0 °F94 %29.79 in10.0 miEast (90°)11.5 mphMostly Cloudy
6:18 AM78.8 °F77.0 °F94 %29.80 in10.0 miEast (90°)10.4 mphScattered Clouds
6:48 AM78.8 °F77.0 °F94 %29.80 in10.0 miEast (90°)10.4 mphMostly Cloudy
6:58 AM79.3 °F77.0 °F93 %29.78 in10.0 miEast (80°)11.5 mphMostly Cloudy
7:58 AM81.3 °F77.5 °F88 %29.81 in10.0 miEast (100°)12.7 mphScattered Clouds
8:03 AM82.4 °F78.8 °F89 %29.83 in10.0 miEast (90°)12.7 mph18.4 mphMostly Cloudy
8:08 AM82.4 °F77.0 °F84 %29.83 in10.0 miEast (100°)12.7 mph18.4 mphMostly Cloudy
8:13 AM82.4 °F77.0 °F84 %29.83 in10.0 miEast (100°)13.8 mphMostly Cloudy
8:58 AM82.8 °F77.7 °F85 %29.81 in10.0 miESE (110°)12.7 mphMostly Cloudy
9:58 AM84.6 °F78.1 °F81 %29.81 in10.0 miESE (110°)13.8 mph0.01 inMostly Cloudy
10:08 AM84.2 °F77.0 °F79 %29.83 in10.0 miESE (120°)16.1 mphScattered Clouds
10:13 AM84.2 °F77.0 °F79 %29.82 in10.0 miEast (100°)12.7 mphMostly Cloudy
10:18 AM84.2 °F77.0 °F79 %29.82 in10.0 miESE (110°)15.0 mphMostly Cloudy
10:23 AM86.0 °F77.0 °F74 %29.82 in10.0 miEast (100°)15.0 mphScattered Clouds
10:28 AM86.0 °F77.0 °F74 %29.82 in10.0 miESE (110°)15.0 mphMostly Cloudy
10:58 AM84.7 °F77.9 °F80 %29.79 in10.0 miESE (110°)15.0 mph21.9 mphMostly Cloudy
11:08 AM84.2 °F77.0 °F79 %29.81 in10.0 miESE (120°)12.7 mphScattered Clouds
11:18 AM86.0 °F77.0 °F74 %29.81 in10.0 miESE (120°)16.1 mphMostly Cloudy
11:23 AM84.2 °F77.0 °F79 %29.81 in10.0 miESE (120°)16.1 mphMostly Cloudy
11:48 AM86.0 °F78.8 °F79 %29.81 in10.0 miEast (100°)13.8 mphMostly Cloudy
11:58 AM85.3 °F78.3 °F79 %29.77 in10.0 miESE (110°)12.7 mph23.0 mphMostly Cloudy
12:13 PM86.0 °F77.0 °F74 %29.80 in10.0 miESE (120°)16.1 mph23.0 mphMostly Cloudy
12:18 PM86.0 °F77.0 °F74 %29.80 in10.0 miESE (120°)18.4 mph23.0 mphOvercast
12:28 PM86.0 °F77.0 °F74 %29.79 in10.0 miESE (120°)16.1 mphOvercast
12:38 PM86.0 °F77.0 °F74 %29.79 in10.0 miSE (130°)18.4 mphMostly Cloudy
12:48 PM86.0 °F77.0 °F74 %29.79 in10.0 miSE (130°)16.1 mphMostly Cloudy
12:53 PM86.0 °F77.0 °F74 %29.78 in10.0 miESE (120°)15.0 mphMostly Cloudy
12:58 PM86.7 °F77.7 °F74 %29.78 in10.0 miESE (110°)15.0 mphMostly Cloudy
1:08 PM86.0 °F77.0 °F74 %29.78 in10.0 miESE (120°)15.0 mphMostly Cloudy
1:18 PM86.0 °F77.0 °F74 %29.77 in10.0 miESE (120°)15.0 mphMostly Cloudy
1:23 PM86.0 °F78.8 °F79 %29.77 in10.0 miESE (110°)12.7 mphMostly Cloudy
1:53 PM86.0 °F77.0 °F74 %29.76 in10.0 miESE (120°)16.1 mphMostly Cloudy
1:58 PM86.0 °F77.0 °F74 %29.76 in10.0 miESE (110°)15.0 mphMostly Cloudy
2:38 PM86.0 °F77.0 °F74 %29.75 in10.0 miESE (120°)17.3 mphMostly Cloudy
2:58 PM85.8 °F76.3 °F73 %29.75 in10.0 miESE (110°)16.1 mphPartly Cloudy
3:18 PM84.2 °F77.0 °F79 %29.75 in10.0 miESE (110°)15.0 mphMostly Cloudy
3:58 PM84.4 °F76.5 °F77 %29.72 in10.0 miSE (130°)16.1 mphScattered Clouds
4:08 PM84.2 °F77.0 °F79 %29.75 in10.0 miESE (120°)13.8 mphMostly Cloudy
4:43 PM84.2 °F77.0 °F79 %29.76 in10.0 miESE (110°)16.1 mphScattered Clouds
4:48 PM84.2 °F77.0 °F79 %29.75 in10.0 miESE (120°)16.1 mphMostly Cloudy
4:58 PM83.7 °F76.6 °F79 %29.72 in10.0 miESE (120°)15.0 mphMostly Cloudy
5:03 PM82.4 °F77.0 °F84 %29.76 in10.0 miESE (120°)16.1 mphScattered Clouds
5:53 PM82.4 °F75.2 °F79 %29.76 in10.0 miESE (120°)12.7 mphMostly Cloudy
5:58 PM81.5 °F75.9 °F83 %29.74 in10.0 miSE (130°)15.0 mph19.6 mphMostly Cloudy
6:38 PM80.6 °F77.0 °F89 %29.78 in10.0 miSE (130°)13.8 mphScattered Clouds
6:43 PM80.6 °F77.0 °F89 %29.78 in10.0 miSE (130°)13.8 mphMostly Cloudy
6:58 PM80.6 °F77.0 °F89 %29.76 in10.0 miSE (130°)15.0 mphMostly Cloudy
7:03 PM80.6 °F77.0 °F89 %29.79 in10.0 miSE (130°)15.0 mphMostly Cloudy
7:23 PM80.6 °F77.0 °F89 %29.80 in10.0 miSE (130°)15.0 mphScattered Clouds
7:28 PM80.6 °F77.0 °F89 %29.80 in10.0 miSE (130°)15.0 mphMostly Cloudy
7:38 PM80.6 °F77.0 °F89 %29.80 in10.0 miESE (120°)15.0 mphMostly Cloudy
7:58 PM81.0 °F76.5 °F86 %29.78 in10.0 miSE (130°)13.8 mphScattered Clouds
8:03 PM80.6 °F77.0 °F89 %29.81 in10.0 miSE (130°)13.8 mphMostly Cloudy
8:18 PM80.6 °F75.2 °F84 %29.81 in10.0 miSE (130°)12.7 mphMostly Cloudy
8:33 PM80.6 °F75.2 °F84 %29.82 in10.0 miSE (130°)13.8 mphScattered Clouds
8:58 PM80.8 °F76.5 °F87 %29.81 in10.0 miSE (140°)12.7 mphScattered Clouds
9:08 PM80.6 °F77.0 °F89 %29.83 in10.0 miSE (130°)13.8 mphMostly Cloudy
9:38 PM80.6 °F75.2 °F84 %29.83 in10.0 miSE (130°)11.5 mphScattered Clouds
9:58 PM80.6 °F75.7 °F85 %29.81 in10.0 miSE (130°)12.7 mphScattered Clouds
10:03 PM80.6 °F75.2 °F84 %29.83 in10.0 miSE (130°)13.8 mphMostly Cloudy
10:28 PM80.6 °F75.2 °F84 %29.83 in10.0 miSE (130°)12.7 mphScattered Clouds
10:58 PM80.4 °F75.7 °F86 %29.81 in10.0 miSE (140°)12.7 mphMostly Cloudy
11:18 PM80.6 °F77.0 °F89 %29.83 in10.0 miSE (130°)15.0 mphMostly Cloudy
11:23 PM80.6 °F77.0 °F89 %29.83 in10.0 miSE (140°)15.0 mphMostly Cloudy
11:28 PM80.6 °F77.0 °F89 %29.83 in10.0 miSE (130°)13.8 mphMostly Cloudy
11:43 PM80.6 °F77.0 °F89 %29.83 in10.0 miSE (130°)12.7 mphMostly Cloudy
11:53 PM80.6 °F77.0 °F89 %29.83 in10.0 miSE (140°)10.4 mphMostly Cloudy
11:58 PM80.2 °F76.8 °F89 %29.81 in10.0 miSE (140°)11.5 mphMostly Cloudy
Hourly data recorded from PGUA, located miles away from Achang Bay, Guam







STORIES FROM OUR PARTNERS